Waarnemingen

Advertentie
Mijn weer
Leucate/Semaphore, Frankrijk (7666): temperatuur & dauwpunt: 14.08.2017 04:00:00 - 20.08.2017 04:00:00 (CEST)Leucate/Semaphore, Frankrijk (7666): windsnelheid & windstoten: 14.08.2017 04:00:00 - 20.08.2017 04:00:00 (CEST)Leucate/Semaphore, Frankrijk (7666): windrichting: 14.08.2017 04:00:00 - 20.08.2017 04:00:00 (CEST)Leucate/Semaphore, Frankrijk (7666): luchtdruk: 14.08.2017 04:00:00 - 20.08.2017 04:00:00 (CEST)Leucate/Semaphore, Frankrijk (7666): zicht: 14.08.2017 04:00:00 - 20.08.2017 04:00:00 (CEST)Leucate/Semaphore, Frankrijk (7666): neerslag: 14.08.2017 04:00:00 - 20.08.2017 04:00:00 (CEST)
Datum & Tijd tt [°C] td [°C] ff [km/u] ff [kn] fx [km/u] fx [kn] dd ppp [hPa] vv [km] rr [mm]
20.08.2017 04:00:00 - - - - - - - - - -
20.08.2017 03:00:00 19,5 7,6 14 8 34 18 NW 1021,3 - 0,0
20.08.2017 02:00:00 20,1 7,1 18 10 38 21 NW 1021,1 - 0,0
20.08.2017 01:00:00 20,8 7,1 16 9 33 18 NW 1021,4 - 0,0
20.08.2017 00:00:00 21,8 6,5 17 9 30 16 NW 1021,2 - 0,0
19.08.2017 23:00:00 22,5 7,5 19 10 46 25 NW 1021,1 - 0,0
19.08.2017 22:00:00 23,0 7,9 24 13 48 26 NW 1020,5 - 0,0
19.08.2017 21:00:00 23,7 8,5 24 13 52 28 NW 1019,8 - 0,0
19.08.2017 20:00:00 25,0 8,5 29 16 60 33 NW 1019,3 25 0,0
19.08.2017 19:00:00 26,4 7,9 29 16 60 33 NW 1018,6 - 0,0
19.08.2017 18:00:00 27,6 10,3 27 15 56 30 NW 1018,4 - 0,0
19.08.2017 17:00:00 28,1 10,8 26 14 54 29 NW 1018,4 - 0,0
19.08.2017 16:00:00 27,8 11,8 23 12 63 34 NW 1018,8 - 0,0
19.08.2017 15:00:00 27,5 12,3 29 16 61 33 NW 1019,1 - 0,0
19.08.2017 14:00:00 25,8 12,3 36 20 74 40 NW 1019,2 - 0,0
19.08.2017 13:00:00 25,3 12,5 29 16 55 30 NW 1019,7 - 0,0
19.08.2017 12:00:00 24,4 13,9 31 17 59 32 NW 1019,7 - 0,0
19.08.2017 11:00:00 23,3 13,7 24 13 49 26 NW 1020,3 - 0,0
19.08.2017 10:00:00 22,6 13,9 26 14 48 26 NNW 1020,0 - 0,0
19.08.2017 09:00:00 21,7 15,1 18 10 34 19 NW 1020,1 - 0,0
19.08.2017 08:00:00 20,8 15,6 16 8 35 19 NW 1019,8 25 0,0
19.08.2017 07:00:00 20,8 15,3 12 7 37 20 NW 1019,7 - 0,0
19.08.2017 06:00:00 21,1 15,9 21 11 51 28 NW 1018,9 - 0,0
19.08.2017 05:00:00 21,2 15,9 23 12 50 27 NW 1018,6 - 0,0
19.08.2017 04:00:00 21,6 16,1 26 14 48 26 NW 1018,5 - 0,0
19.08.2017 03:00:00 22,0 15,6 23 12 54 29 NW 1018,1 - 0,0
19.08.2017 02:00:00 22,1 16,8 23 13 55 30 NW 1017,9 - 0,0
19.08.2017 01:00:00 22,4 17,7 21 11 54 29 NW 1017,8 - 0,0
19.08.2017 00:00:00 22,9 17,8 26 14 53 29 NW 1017,3 - 0,0
18.08.2017 23:00:00 23,0 17,9 23 12 66 36 NW 1017,3 - 0,2
18.08.2017 22:00:00 23,8 18,2 30 16 57 31 NW 1017,3 - 0,0
18.08.2017 21:00:00 23,1 18,8 27 15 69 37 NW 1016,6 - 3,5
18.08.2017 20:00:00 27,1 17,0 37 20 66 36 WNW 1015,9 22 0,0
18.08.2017 19:00:00 28,8 17,7 33 18 60 32 NW 1015,3 - 0,0
18.08.2017 18:00:00 30,8 17,1 29 15 64 35 NW 1014,8 - 0,0
18.08.2017 17:00:00 25,5 19,2 9 5 32 17 Z 1014,7 20 0,0
18.08.2017 16:00:00 25,9 18,6 10 6 17 9 Z 1015,0 - 0,0
18.08.2017 15:00:00 25,1 20,6 11 6 18 10 ZZO 1014,8 - 0,0
18.08.2017 14:00:00 24,9 20,4 12 6 21 11 ZO 1014,7 - 0,0
18.08.2017 13:00:00 25,5 19,9 10 5 19 10 O 1014,9 - 0,0
18.08.2017 12:00:00 25,6 19,5 11 6 23 12 ONO 1015,5 - 0,0
18.08.2017 11:00:00 26,1 19,0 6 3 21 11 NNO 1015,9 20 0,0
18.08.2017 10:00:00 25,0 18,2 9 5 26 14 N 1015,9 - 0,0
18.08.2017 09:00:00 23,8 17,5 16 9 25 14 N 1015,8 - 0,0
18.08.2017 08:00:00 22,9 16,2 16 9 26 14 NNW 1015,8 25 0,0
18.08.2017 07:00:00 23,0 15,1 13 7 23 12 NNW 1015,4 - 0,0
18.08.2017 06:00:00 23,4 15,2 16 9 19 11 N 1015,0 - 0,0
18.08.2017 05:00:00 25,3 14,4 3 1 14 8 ZW 1015,3 - 0,0
18.08.2017 04:00:00 23,9 18,1 11 6 16 9 ZW 1015,6 - 0,0
18.08.2017 03:00:00 24,7 14,5 8 4 13 7 W 1015,8 - 0,0
18.08.2017 02:00:00 25,2 15,2 9 5 18 10 NNW 1016,2 - 0,0
18.08.2017 01:00:00 26,8 14,2 10 6 20 11 WNW 1016,7 - 0,0
18.08.2017 00:00:00 27,7 14,3 8 4 22 12 WZW 1016,7 - 0,0
17.08.2017 23:00:00 28,2 14,1 16 8 36 19 WNW 1016,9 - 0,0
17.08.2017 22:00:00 29,3 14,3 19 10 40 21 NW 1016,9 - 0,0
17.08.2017 21:00:00 29,7 15,0 16 9 33 18 WNW 1016,8 - 0,0
17.08.2017 20:00:00 28,0 18,4 13 7 37 20 WZW 1016,5 - 0,0
17.08.2017 19:00:00 26,2 18,6 22 12 31 17 Z 1016,5 - 0,0
17.08.2017 18:00:00 26,2 19,6 24 13 30 16 Z 1016,6 - 0,0
17.08.2017 17:00:00 26,5 19,4 22 12 30 16 Z 1016,8 - 0,0
17.08.2017 16:00:00 31,1 16,3 5 3 26 14 N 1017,0 - 0,0
17.08.2017 15:00:00 32,4 18,9 12 7 23 12 N 1017,6 - 0,0
17.08.2017 14:00:00 29,2 17,7 10 6 31 17 NNO 1018,3 25 0,0
17.08.2017 13:00:00 30,7 16,3 18 10 33 18 NNW 1018,3 - 0,0
17.08.2017 12:00:00 29,8 16,9 21 11 45 24 NNW 1018,7 - 0,0
17.08.2017 11:00:00 28,3 16,9 22 12 47 26 NW 1019,0 25 0,0
17.08.2017 10:00:00 26,8 17,0 23 13 44 24 NW 1019,2 - 0,0
17.08.2017 09:00:00 25,5 16,9 20 11 40 21 NW 1018,9 - 0,0
17.08.2017 08:00:00 24,0 16,5 22 12 41 22 NW 1018,4 - 0,0
17.08.2017 07:00:00 23,8 16,8 20 11 40 21 NW 1018,1 - 0,0
17.08.2017 06:00:00 23,7 17,0 19 10 40 21 NW 1017,7 - 0,0
17.08.2017 05:00:00 23,5 17,3 16 9 38 21 NW 1017,8 - 0,0
17.08.2017 04:00:00 23,7 17,4 23 12 45 24 NW 1018,1 - 0,0
17.08.2017 03:00:00 23,8 17,5 25 14 50 27 NW 1018,1 - 0,0
17.08.2017 02:00:00 24,1 17,8 22 12 44 24 NW 1018,4 - 0,0
17.08.2017 01:00:00 24,5 18,0 24 13 49 27 NW 1018,4 - 0,0
17.08.2017 00:00:00 25,1 17,8 25 13 51 28 NW 1018,4 - 0,0
16.08.2017 23:00:00 25,6 17,8 27 14 50 27 WNW 1018,7 - 0,0
16.08.2017 22:00:00 26,1 18,0 26 14 47 25 WNW 1018,6 - 0,0
16.08.2017 21:00:00 26,9 18,5 23 12 47 26 WNW 1018,0 - 0,0
16.08.2017 20:00:00 27,9 18,9 11 6 36 19 W 1017,9 - 0,0
16.08.2017 19:00:00 24,5 18,7 11 6 21 11 ZZW 1017,6 - 0,0
16.08.2017 18:00:00 24,0 19,7 16 9 26 14 Z 1017,5 - 0,0
16.08.2017 17:00:00 24,0 19,9 19 10 22 12 Z 1017,6 - 0,0
16.08.2017 16:00:00 24,9 19,9 11 6 14 8 Z 1018,1 - 0,0
16.08.2017 15:00:00 24,7 20,0 10 6 15 8 Z 1018,4 - 0,0
16.08.2017 14:00:00 23,5 20,0 11 6 16 9 ZZO 1018,7 - 0,0
16.08.2017 13:00:00 24,0 19,7 13 7 16 9 Z 1018,8 - 0,0
16.08.2017 12:00:00 23,1 19,1 6 3 9 5 ZZO 1019,2 - 0,0
16.08.2017 11:00:00 23,0 19,0 4 2 8 5 ZO 1019,4 - 0,0
16.08.2017 10:00:00 22,5 17,8 4 2 13 7 NNO 1019,5 - 0,0
16.08.2017 09:00:00 22,0 17,4 5 3 13 7 NNW 1019,5 - 0,0
16.08.2017 08:00:00 20,3 18,4 6 4 11 6 N 1019,2 - 0,0
16.08.2017 07:00:00 19,4 17,9 7 4 10 6 NNO 1018,9 - 0,0
16.08.2017 06:00:00 19,1 17,6 8 4 12 6 N 1018,8 - 0,0
16.08.2017 05:00:00 19,8 18,5 5 3 10 6 NW 1019,1 - 0,0
16.08.2017 04:00:00 19,9 18,9 10 5 17 9 W 1019,5 - 0,0
16.08.2017 03:00:00 20,4 19,6 10 5 14 7 ZW 1019,4 - 0,0
16.08.2017 02:00:00 20,3 19,3 4 2 18 10 NW 1020,0 - 0,0
16.08.2017 01:00:00 20,4 19,4 10 5 12 7 NNW 1020,1 - 0,0
16.08.2017 00:00:00 20,7 19,7 6 3 8 5 W 1020,0 - 0,0
15.08.2017 23:00:00 21,0 19,8 3 2 8 4 NO 1019,5 - 0,0
15.08.2017 22:00:00 21,1 19,7 3 2 14 8 ONO 1019,7 - 0,0
15.08.2017 21:00:00 21,3 19,9 5 3 13 7 OZO 1019,4 - 0,0
15.08.2017 20:00:00 21,3 19,8 6 3 22 12 NO 1018,7 20 0,0
15.08.2017 19:00:00 21,4 19,7 11 6 26 14 OZO 1018,7 - 0,0
15.08.2017 18:00:00 21,2 19,3 14 7 31 17 NO 1018,7 - 0,0
15.08.2017 17:00:00 22,6 19,6 9 5 21 11 N 1020,3 15 0,0
15.08.2017 16:00:00 22,1 19,6 14 8 28 15 ONO 1019,6 - 0,0
15.08.2017 15:00:00 21,6 19,7 20 11 37 20 O 1019,4 - 0,0
15.08.2017 14:00:00 21,2 19,8 25 14 40 21 O 1019,0 - 0,0
15.08.2017 13:00:00 21,3 19,8 24 13 38 20 O 1019,2 - 0,0
15.08.2017 12:00:00 21,6 19,9 25 14 38 21 O 1019,4 - 0,0
15.08.2017 11:00:00 21,6 20,1 24 13 34 19 O 1019,4 12 0,0
15.08.2017 10:00:00 22,1 20,6 19 10 30 16 O 1019,5 - 0,0
15.08.2017 09:00:00 21,5 20,1 11 6 19 11 Z 1019,5 - 0,0
15.08.2017 08:00:00 21,4 20,4 4 2 19 11 ONO 1019,1 12 0,0
15.08.2017 07:00:00 21,3 20,3 6 3 24 13 ONO 1018,7 - 0,0
15.08.2017 06:00:00 21,5 20,5 21 11 38 21 ZO 1018,7 - 0,0
15.08.2017 05:00:00 21,4 20,4 22 12 36 20 ZO 1018,7 - 0,0
15.08.2017 04:00:00 21,2 19,8 21 11 36 19 O 1018,3 - 0,0
15.08.2017 03:00:00 21,5 20,0 29 16 42 23 OZO 1018,3 - 0,0
15.08.2017 02:00:00 21,7 20,0 33 18 41 22 OZO 1018,3 - 0,0
15.08.2017 01:00:00 21,9 20,2 31 17 42 23 OZO 1018,2 - 0,0
15.08.2017 00:00:00 22,0 20,1 34 18 44 24 OZO 1017,6 - 0,0
14.08.2017 23:00:00 22,3 20,0 36 19 45 24 ZO 1017,6 - 0,0
14.08.2017 22:00:00 22,3 20,2 35 19 46 25 ZO 1017,3 - 0,0
14.08.2017 21:00:00 22,3 20,4 24 13 35 19 ZO 1017,2 - 0,0
14.08.2017 20:00:00 22,6 20,3 22 12 39 21 ZO 1017,0 12 0,0
14.08.2017 19:00:00 22,8 20,5 28 15 38 21 OZO 1016,9 - 0,0
14.08.2017 18:00:00 22,6 20,7 17 9 35 19 O 1017,2 - 0,0
14.08.2017 17:00:00 22,9 20,6 24 13 35 19 O 1017,1 12 0,0
14.08.2017 16:00:00 22,7 20,8 24 13 35 19 O 1017,3 - 0,0
14.08.2017 15:00:00 22,8 20,9 22 12 34 19 O 1017,7 - 0,0
14.08.2017 14:00:00 22,3 20,8 17 9 27 14 O 1018,2 4,0 0,0
14.08.2017 13:00:00 21,2 19,8 16 9 26 14 O 1018,6 - 0,0
14.08.2017 12:00:00 21,7 20,2 8 5 24 13 NO 1018,4 - 0,0
14.08.2017 11:00:00 21,2 19,8 11 6 28 15 ONO 1018,2 0,9 0,0
14.08.2017 10:00:00 21,0 19,6 8 4 25 14 NO 1017,9 - 0,0
14.08.2017 09:00:00 20,7 19,2 16 9 26 14 N 1017,6 - 0,0
14.08.2017 08:00:00 19,9 18,4 17 9 26 14 N 1017,3 15 0,0
14.08.2017 07:00:00 20,1 18,9 16 9 22 12 N 1016,9 - 0,0
14.08.2017 06:00:00 19,7 18,4 16 9 27 15 N 1016,7 - 0,0
14.08.2017 05:00:00 19,7 18,5 18 10 27 15 N 1016,8 20 0,0
14.08.2017 04:00:00 20,2 18,7 10 5 15 8 NNW 1016,9 - 0,0

tt = temperatuur
td = dauwpunt
ff = windsnelheid
fx = windstoten
dd = windrichting
ppp = luchtdruk
vv = zicht
rr = neerslag

Weerstations in de omgeving